Regional Weather Roundup
Issued by NWS Grand Forks, ND

Home | Current Version | Previous Version | Text Only | Print | Product List | Glossary On
Versions: 1 2 3 4 5 6 7 8 9 10 11 12 13 14 15 16 17 18 19 20 21 22 23 24 25 26 27 28 29 30 31 32 33 34 35 36 37 38 39 40 41 42 43 44 45 46 47 48 49 50
000
ASUS43 KFGF 231831
RWRFGF
PRAIRIE TO PINES  WEATHER ROUNDUP
NATIONAL WEATHER SERVICE EASTERN NORTH DAKOTA/GRAND FORKS ND
100 PM CDT TUE MAY 23 2017

 **SATELLITE DATA USED TO AUGMENT SKY COVER AT AUTOMATED STATIONS**
 *****  WEATHER ACROSS EASTERN NORTH DAKOTA  *****

CITY           SKY/WX    TMP DP  RH WIND       PRES   REMARKS
GRAND FORKS    CLOUDY    59  44  57 NE18      30.00F
6HR MIN TEMP:  49; 6HR MAX TEMP:  60;

GRAND FRKS AFB PTSUNNY   57  43  58 NE14      30.09R
DEVILS LAKE    PTSUNNY   60  39  45 N21G30    30.06F
6HR MIN TEMP:  45; 6HR MAX TEMP:  60;

FARGO          CLOUDY    52  45  77 N18       29.96S
WAHPETON ARPT  CLOUDY    52  45  76 N17G24    29.92S
$$

 ***** WEATHER ACROSS CENTRAL AND WESTERN NORTH DAKOTA  *****

CITY           SKY/WX    TMP DP  RH WIND       PRES   REMARKS
BISMARCK       PTSUNNY   63  36  36 N21G35    30.08F
6HR MIN TEMP:  52; 6HR MAX TEMP:  64;

MINOT          FAIR      65  35  33 N16G22    30.10F
6HR MIN TEMP:  44; 6HR MAX TEMP:  66;

JAMESTOWN      CLOUDY    52  42  69 NE21G29   30.02S
6HR MIN TEMP:  46; 6HR MAX TEMP:  55; 6HR PCP: TRACE;

MINOT AFB      FAIR      64  36  34 NE16G22   30.09F
GARRISON         N/A     61  35  37 NE10G24   30.09F
WILLISTON      FAIR      68  35  29 E6        30.12F
6HR MIN TEMP:  37; 6HR MAX TEMP:  69;

DICKINSON      FAIR      61  32  33 N14       30.12S
6HR MIN TEMP:  37; 6HR MAX TEMP:  61;

HETTINGER      PTSUNNY   60  32  34 N18G24    30.13S
6HR MIN TEMP:  38; 6HR MAX TEMP:  62;

$$

 *****  OTHER AIRPORT OBSERVATIONS IN OUR AREA  *****

CITY           SKY/WX    TMP DP  RH WIND       PRES   REMARKS
WALHALLA       NOT AVBL
GRAFTON AIRPOR CLOUDY    59  43  55 NE16G25   30.02F
VALLEY CITY AR CLOUDY    52  46  82 NE22G31   30.01F
CANDO          NOT AVBL
CAVALIER APRT  FAIR      61  43  51 NE14G26   30.03S
GWINNER        CLOUDY    50  46  87 MISG      29.97S
SHEYENNE NWR     N/A     50  46  85 N10       29.95
ROLLA          FAIR      63  32  31 NE12G25   30.09S
 ***** THE ABOVE OBSERVATIONS ARE NON NWS ARE NOT QUALITY
       CONTROLLED AND MAY MIS-REPORT RAIN FOR SNOW...
$$

  *****  WEATHER ACROSS NORTHERN MINNESOTA  *****

CITY           SKY/WX    TMP DP  RH WIND       PRES   REMARKS
FLAG ISLAND    PTSUNNY   57  37  47 NE24G30   30.00S
WARROAD        FAIR      57  46  67 NE17G25   30.01S
ROSEAU         FAIR      61  45  55 NE24G31   29.99F
HALLOCK        CLOUDY    63  39  42 NE14G24   30.01S
THF RVR FALLS  CLOUDY    54  43  66 NE20G26   29.99F
BAUDETTE       CLOUDY    53  43  68 NE14      29.98F
6HR MIN TEMP:  47; 6HR MAX TEMP:  54;

WASKISH        CLOUDY    50  45  81 N9G20     29.97R
CROOKSTON      CLOUDY    55  45  67 NE12G22   29.99F
STEPHEN NDAWN    N/A     57  43  58 NE20        N/A
GREENBUSH NDAW   N/A     57  45  62 NE17        N/A
$$
  *****  WEATHER ACROSS CENTRAL AND WEST MINNESOTA  *****

CITY           SKY/WX    TMP DP  RH WIND       PRES   REMARKS
FOSSTON        CLOUDY    46  46 100 N14       29.97S FOG
BEMIDJI        CLOUDY    49  44  83 NE10G16   29.94S
PARK RAPIDS    LGT RAIN  55  43  63 N12       29.90S
6HR MIN TEMP:  47; 6HR MAX TEMP:  55; 6HR PCP: TRACE;

ELBOW LAKE     CLOUDY    54  44  69 NE10      29.89S
6HR MIN TEMP:  46; 6HR MAX TEMP:  54;

WADENA         PTSUNNY   54  45  71 N15       29.89R
DETROIT LAKES  CLOUDY    52  45  76 NE10      29.93S
MOORHEAD       PTSUNNY   54  46  76 N17       29.96S
FERGUS FALLS   PTSUNNY   54  46  76 NE10G16   29.89S
MORRIS MN      PTSUNNY   54  46  76 NE12G20   29.87S
STAPLES        PTSUNNY   54  43  66 NE8       29.88S
$$
  *****  WEATHER ELSEWHERE ACROSS MINNESOTA  *****

CITY           SKY/WX    TMP DP  RH WIND       PRES   REMARKS
DULUTH         CLOUDY    53  46  77 NE8       29.87F
6HR MIN TEMP:  47; 6HR MAX TEMP:  53;

INTRNTL FALLS  CLOUDY    51  43  74 NE8       29.96S
6HR MIN TEMP:  45; 6HR MAX TEMP:  52; 6HR PCP:  0.03;

ELY            PTSUNNY   50  48  93 N8        29.90S
CLOQUET        CLOUDY    54  43  66 NE9       29.87F
WHEATON        FAIR      54  46  76 NW18G26   29.92S
BRAINERD       CLOUDY    56  43  61 N10       29.88S
6HR MIN TEMP:  46; 6HR MAX TEMP:  56; 6HR PCP: TRACE;

HIBBING        CLOUDY    54  46  74 NE10      29.88F
6HR MIN TEMP:  41; 6HR MAX TEMP:  53; 6HR PCP: TRACE;

ALEXANDRIA     CLOUDY    56  46  69 N12       29.88S
6HR MIN TEMP:  46; 6HR MAX TEMP:  55; 6HR PCP: TRACE;

SAINT CLOUD    CLOUDY    56  46  69 VRB7      29.84F
6HR MIN TEMP:  46; 6HR MAX TEMP:  56;

MINNEAPOLIS    CLOUDY    59  42  53 N10       29.81F
6HR MIN TEMP:  51; 6HR MAX TEMP:  61;

$$

  *****  WEATHER ACROSS SOUTH DAKOTA  *****

CITY           SKY/WX    TMP DP  RH WIND       PRES   REMARKS
SIOUX FALLS    CLOUDY    54  48  80 N17       29.88F
6HR MIN TEMP:  48; 6HR MAX TEMP:  54; 6HR PCP:  0.05;

BROOKINGS      LGT RAIN  52  46  82 N16       29.88S
WATERTOWN      CLOUDY    51  46  83 N21G28    29.89F
6HR MIN TEMP:  45; 6HR MAX TEMP:  50; 6HR PCP:  0.04;

HURON          CLOUDY    53  45  74 N20       29.95S
6HR MIN TEMP:  47; 6HR MAX TEMP:  53; 6HR PCP: TRACE;

SISSETON         N/A     52  50  93 N21G28    29.92S
ABERDEEN       CLOUDY    53  42  66 N22G28    29.99R
6HR MIN TEMP:  46; 6HR MAX TEMP:  53; 6HR PCP:  0.01;

MITCHELL       LGT RAIN  51  47  86 N21G26    29.95S
PIERRE         LGT RAIN  55  38  52 N21G30    30.02F
6HR MIN TEMP:  48; 6HR MAX TEMP:  57; 6HR PCP: TRACE;

MOBRIDGE       CLOUDY    54  38  54 N21G28    30.04R
RAPID CITY     PTSUNNY   60  35  39 N22G33    30.11F
6HR MIN TEMP:  47; 6HR MAX TEMP:  61;

$$

  *****  SOME WEATHER IN NEARBY STATES *****

CITY           SKY/WX    TMP DP  RH WIND       PRES   REMARKS
GLASGOW MT     FAIR      69  32  25 S9        30.09F
6HR MIN TEMP:  38; 6HR MAX TEMP:  69;

GREAT FALLS MT FAIR      74  41  30 SW10      30.02F
6HR MIN TEMP:  46; 6HR MAX TEMP:  74;

CHEYENNE WY    LGT RAIN  47  33  58 N14G24    30.19F
6HR MIN TEMP:  40; 6HR MAX TEMP:  48; 6HR PCP: TRACE;

SCOTTSBLUFF NE CLOUDY    59  35  40 NW17      30.12F
6HR MIN TEMP:  38; 6HR MAX TEMP:  60;

OMAHA NE       PTSUNNY   58  44  60 NW13      29.86F
6HR MIN TEMP:  50; 6HR MAX TEMP:  60; 6HR PCP: TRACE;

DES MOINES IA  LGT RAIN  60  45  57 NW18G24   29.80F
6HR MIN TEMP:  52; 6HR MAX TEMP:  61; 6HR PCP: TRACE;

DAVENPORT IA   LGT RAIN  58  52  80 NW14      29.75F
6HR MIN TEMP:  55; 6HR MAX TEMP:  62;

CHICAGO IL     CLOUDY    62  52  69 SW3       29.75F
6HR MIN TEMP:  59; 6HR MAX TEMP:  62; 6HR PCP:  0.02;

EAU CLAIRE WI  CLOUDY    53  48  83 NE7       29.79F
6HR MIN TEMP:  49; 6HR MAX TEMP:  53; 6HR PCP:  0.04;

LA CROSSE WI   CLOUDY    58  51  78 NE8       29.74F
6HR MIN TEMP:  55; 6HR MAX TEMP:  60;

$$

  *****  SOME NATIONAL WEATHER *****

CITY           SKY/WX    TMP DP  RH WIND       PRES   REMARKS
LA GUARDIA NY  CLOUDY    68  47  46 NW7       29.90F
6HR MIN TEMP:  60; 6HR MAX TEMP:  68;

RALEIGH NC     LGT RAIN  69  67  93 E7        29.77F FOG
6HR MIN TEMP:  68; 6HR MAX TEMP:  71; 6HR PCP:  0.07;

ATLANTA GA     LGT RAIN  68  65  90 SE5       29.74F
6HR MIN TEMP:  67; 6HR MAX TEMP:  68; 6HR PCP:  0.43;

NEW ORLEANS LA PTSUNNY   81  69  67 W13       29.78S
6HR MIN TEMP:  75; 6HR MAX TEMP:  82; 6HR PCP: TRACE;

OKLAHOMA CITY  PTSUNNY   61  50  67 N17G24    29.95F
6HR MIN TEMP:  56; 6HR MAX TEMP:  59; 6HR PCP: TRACE;

ALBUQUERQUE NM FAIR      67  37  33 N3        30.14F
6HR MIN TEMP:  55; 6HR MAX TEMP:  68;

SALT LAKE CITY PTSUNNY   75  39  27 CALM      30.16F
6HR MIN TEMP:  57; 6HR MAX TEMP:  76;

LOS ANGELES CA PTSUNNY   64  58  80 W18       29.97R FOG
6HR MIN TEMP:  59; 6HR MAX TEMP:  73;

BOISE ID       FAIR


USA.gov is the U.S. government's official web portal to all federal, state and local government web resources and services.